• In Hungary
  • List of Countries
  • For 7 days
  • Water Temperature
  • Satellite Maps
  • Weather Map
  • News
  • Weather Widgets
  • user-avatar
    Login

    Hourly Weather Akkol'

    Today, 19 September, Wednesday

    Time Temperature Precipitation Wind Pressure Humidity
    00:00 +8°C° 0 mm 5 mps 731 mmHg 56%
    01:00 +8°C° 0 mm 5 mps 731 mmHg 58%
    02:00 +8°C° 0 mm 5 mps 730 mmHg 59%
    03:00 +8°C° 0 mm 4 mps 730 mmHg 58%
    04:00 +7°C° 0 mm 4 mps 730 mmHg 58%
    05:00 +7°C° 0 mm 4 mps 730 mmHg 58%
    06:00 +8°C° 0 mm 5 mps 729 mmHg 53%
    07:00 +9°C° 0 mm 5 mps 729 mmHg 49%
    08:00 +10°C° 0 mm 5 mps 729 mmHg 44%
    09:00 +13°C° 0 mm 6 mps 729 mmHg 40%
    10:00 +15°C° 0 mm 6 mps 728 mmHg 35%
    11:00 +17°C° 0 mm 7 mps 728 mmHg 31%
    12:00 +18°C° 0 mm 7 mps 728 mmHg 29%
    13:00 +18°C° 0 mm 7 mps 727 mmHg 28%
    14:00 +20°C° 0 mm 7 mps 726 mmHg 26%
    15:00 +20°C° 0 mm 6 mps 726 mmHg 27%
    16:00 +19°C° 0 mm 5 mps 725 mmHg 28%
    17:00 +19°C° 0 mm 4 mps 725 mmHg 28%
    18:00 +18°C° 0 mm 4 mps 724 mmHg 30%
    19:00 +15°C° 0 mm 4 mps 724 mmHg 31%
    20:00 +14°C° 0 mm 4 mps 724 mmHg 33%
    21:00 +14°C° 0 mm 4 mps 723 mmHg 33%
    22:00 +13°C° 0 mm 4 mps 723 mmHg 33%
    23:00 +13°C° 0 mm 4 mps 722 mmHg 33%

    Tomorrow, 20 September, Thursday

    Time Temperature Precipitation Wind Pressure Humidity
    00:00 +12°C° 0 mm 4 mps 722 mmHg 33%
    01:00 +12°C° 0 mm 4 mps 722 mmHg 33%
    02:00 +12°C° 0 mm 4 mps 721 mmHg 33%
    03:00 +12°C° 0 mm 4 mps 721 mmHg 33%
    04:00 +11°C° 0 mm 4 mps 721 mmHg 34%
    05:00 +11°C° 0 mm 4 mps 721 mmHg 35%
    06:00 +12°C° 0 mm 4 mps 720 mmHg 35%
    07:00 +13°C° 0 mm 4 mps 720 mmHg 35%
    08:00 +14°C° 0 mm 5 mps 720 mmHg 35%
    09:00 +16°C° 0 mm 5 mps 720 mmHg 33%
    10:00 +17°C° 0 mm 5 mps 720 mmHg 32%
    11:00 +20°C° 0 mm 5 mps 720 mmHg 30%
    12:00 +20°C° 0 mm 5 mps 719 mmHg 32%
    13:00 +21°C° 0 mm 5 mps 719 mmHg 33%
    14:00 +22°C° 0 mm 5 mps 719 mmHg 35%
    15:00 +21°C° 0 mm 5 mps 719 mmHg 38%
    16:00 +21°C° 0 mm 4 mps 719 mmHg 41%
    17:00 +20°C° 0 mm 3 mps 719 mmHg 43%
    18:00 +19°C° 0.2 mm 3 mps 719 mmHg 49%
    19:00 +17°C° 0.2 mm 3 mps 719 mmHg 55%
    20:00 +16°C° 0.2 mm 3 mps 719 mmHg 61%
    21:00 +14°C° 0.1 mm 3 mps 719 mmHg 66%
    22:00 +13°C° 0.1 mm 3 mps 718 mmHg 72%
    23:00 +13°C° 0.1 mm 3 mps 718 mmHg 77%

    Day after tomorrow, 21 September, Friday

    Time Temperature Precipitation Wind Pressure Humidity
    00:00 +12°C° 0 mm 4 mps 718 mmHg 78%
    01:00 +12°C° 0 mm 5 mps 718 mmHg 79%
    02:00 +12°C° 0 mm 5 mps 717 mmHg 79%
    03:00 +11°C° 0.1 mm 6 mps 717 mmHg 76%
    04:00 +10°C° 0.1 mm 6 mps 717 mmHg 74%
    05:00 +10°C° 0.1 mm 7 mps 717 mmHg 71%
    06:00 +10°C° 0.1 mm 8 mps 717 mmHg 71%
    07:00 +10°C° 0.1 mm 9 mps 717 mmHg 71%
    08:00 +10°C° 0.1 mm 9 mps 717 mmHg 72%
    09:00 +9°C° 0.3 mm 10 mps 717 mmHg 71%
    10:00 +9°C° 0.3 mm 11 mps 718 mmHg 70%
    11:00 +9°C° 0.3 mm 11 mps 718 mmHg 69%
    12:00 +11°C° 0.9 mm 11 mps 718 mmHg 67%
    13:00 +11°C° 0.9 mm 11 mps 718 mmHg 65%
    14:00 +12°C° 0.9 mm 11 mps 719 mmHg 63%
    15:00 +12°C° 0.2 mm 10 mps 719 mmHg 64%
    16:00 +12°C° 0.2 mm 10 mps 719 mmHg 64%
    17:00 +11°C° 0.2 mm 10 mps 720 mmHg 64%
    18:00 +11°C° 0.1 mm 9 mps 720 mmHg 68%
    19:00 +10°C° 0.1 mm 9 mps 721 mmHg 71%
    20:00 +9°C° 0.1 mm 8 mps 721 mmHg 75%
    21:00 +9°C° 0.1 mm 8 mps 721 mmHg 76%
    22:00 +9°C° 0.1 mm 8 mps 722 mmHg 77%
    23:00 +8°C° 0.1 mm 9 mps 722 mmHg 78%

    22 September, Saturday

    Time Temperature Precipitation Wind Pressure Humidity
    00:00 +8°C° 0.2 mm 9 mps 722 mmHg 78%
    01:00 +8°C° 0.2 mm 9 mps 722 mmHg 78%
    02:00 +9°C° 0.2 mm 8 mps 723 mmHg 79%
    03:00 +9°C° 0 mm 8 mps 723 mmHg 80%
    04:00 +7°C° 0 mm 8 mps 723 mmHg 81%
    05:00 +8°C° 0 mm 7 mps 724 mmHg 82%
    06:00 +8°C° 0 mm 7 mps 724 mmHg 81%
    07:00 +9°C° 0 mm 7 mps 725 mmHg 79%
    08:00 +9°C° 0 mm 7 mps 725 mmHg 78%
    09:00 +10°C° 0 mm 7 mps 725 mmHg 73%
    10:00 +11°C° 0 mm 7 mps 726 mmHg 69%
    11:00 +14°C° 0 mm 7 mps 726 mmHg 64%
    12:00 +14°C° 0 mm 7 mps 726 mmHg 64%
    13:00 +14°C° 0 mm 7 mps 726 mmHg 63%
    14:00 +14°C° 0 mm 7 mps 726 mmHg 63%
    15:00 +14°C° 0 mm 6 mps 726 mmHg 65%
    16:00 +13°C° 0 mm 6 mps 726 mmHg 67%
    17:00 +13°C° 0 mm 5 mps 726 mmHg 69%
    18:00 +12°C° 0 mm 5 mps 727 mmHg 72%
    19:00 +11°C° 0 mm 4 mps 727 mmHg 76%
    20:00 +10°C° 0 mm 3 mps 727 mmHg 79%
    21:00 +10°C° 0 mm 3 mps 727 mmHg 80%
    22:00 +9°C° 0 mm 3 mps 727 mmHg 82%
    23:00 +9°C° 0 mm 3 mps 727 mmHg 83%

    23 September, Sunday

    Time Temperature Precipitation Wind Pressure Humidity
    00:00 +9°C° 0 mm 3 mps 727 mmHg 84%
    01:00 +8°C° 0 mm 4 mps 727 mmHg 84%
    02:00 +8°C° 0 mm 4 mps 726 mmHg 85%
    03:00 +8°C° 0.1 mm 4 mps 727 mmHg 87%
    04:00 +8°C° 0.1 mm 4 mps 727 mmHg 88%
    05:00 +8°C° 0.1 mm 4 mps 727 mmHg 89%
    06:00 +8°C° 0 mm 4 mps 727 mmHg 86%
    07:00 +10°C° 0 mm 4 mps 727 mmHg 84%
    08:00 +9°C° 0 mm 5 mps 727 mmHg 81%
    09:00 +9°C° 0 mm 5 mps 727 mmHg 77%
    10:00 +10°C° 0 mm 5 mps 727 mmHg 73%
    11:00 +12°C° 0 mm 5 mps 727 mmHg 69%
    12:00 +12°C° 0.1 mm 5 mps 727 mmHg 66%
    13:00 +12°C° 0.1 mm 5 mps 727 mmHg 64%
    14:00 +12°C° 0.1 mm 5 mps 727 mmHg 61%
    15:00 +12°C° 0.2 mm 5 mps 727 mmHg 64%
    16:00 +12°C° 0.2 mm 4 mps 727 mmHg 67%
    17:00 +12°C° 0.2 mm 4 mps 728 mmHg 70%
    18:00 +11°C° 0.2 mm 4 mps 728 mmHg 73%
    19:00 +11°C° 0.2 mm 3 mps 728 mmHg 77%
    20:00 +10°C° 0.2 mm 3 mps 729 mmHg 81%
    21:00 +10°C° 0 mm 3 mps 729 mmHg 82%
    22:00 +9°C° 0 mm 3 mps 729 mmHg 83%
    23:00 +9°C° 0 mm 3 mps 729 mmHg 84%

    24 September, Monday

    Time Temperature Precipitation Wind Pressure Humidity
    00:00 +9°C° 0 mm 3 mps 729 mmHg 84%
    01:00 +9°C° 0 mm 3 mps 729 mmHg 85%
    02:00 +8°C° 0 mm 3 mps 729 mmHg 86%
    03:00 +8°C° 0 mm 3 mps 730 mmHg 87%
    04:00 +8°C° 0 mm 3 mps 730 mmHg 88%
    05:00 +7°C° 0 mm 3 mps 730 mmHg 88%
    06:00 +8°C° 0 mm 3 mps 730 mmHg 86%
    07:00 +8°C° 0 mm 3 mps 731 mmHg 83%
    08:00 +8°C° 0 mm 3 mps 731 mmHg 80%
    09:00 +10°C° 0 mm 3 mps 731 mmHg 72%
    10:00 +11°C° 0 mm 4 mps 731 mmHg 63%
    11:00 +13°C° 0 mm 4 mps 731 mmHg 54%
    12:00 +13°C° 0 mm 4 mps 731 mmHg 51%
    13:00 +14°C° 0 mm 5 mps 731 mmHg 47%
    14:00 +15°C° 0 mm 5 mps 730 mmHg 43%
    15:00 +14°C° 0.2 mm 5 mps 730 mmHg 52%
    16:00 +13°C° 0.2 mm 4 mps 730 mmHg 60%
    17:00 +12°C° 0.2 mm 4 mps 730 mmHg 68%
    18:00 +11°C° 0.8 mm 3 mps 730 mmHg 73%
    19:00 +12°C° 0.8 mm 2 mps 730 mmHg 79%
    20:00 +10°C° 0.8 mm 2 mps 730 mmHg 84%
    21:00 +11°C° 0.1 mm 1 mps 730 mmHg 86%
    22:00 +11°C° 0.1 mm 1 mps 730 mmHg 88%
    23:00 +10°C° 0.1 mm 1 mps 730 mmHg 89%
    Show more